Zurück zum Katalog

NOAA 16 DEB

AktivSSO
NORAD 42355·DEBRIS·🇺🇸 United States

Gestartet Sep 21, 2000 von Vandenberg Space Force Base

Loading…

Nächste Überflüge (nächste 24 Stunden)

TLE

AktuellSource: Space-Track

Epoche: Sep 14, 2026, 06:48 UTC

1 42355U 00055QX  26257.28347087  .00001600  00000-0  82638-3 0  9997
2 42355  98.6819 280.6509 0033910 347.1706  12.8603 14.16143408543213

Verfolge NOAA 16 DEB in Echtzeit mit AllMySat

Download on the App Store